RH
99 100 100 99 98 100 100 100 100 100 100 94 88 81 67 59 37 31 23 28 20 11 10 12 14 11 11 8 11 14 19 56 73 79 29 25 26 45 32 24 21 42 18
100 100 100 100 100 100 100 100 100 100 100 99 90 78 70 69 62 72 59 43 22 18 22 29 15 10 9 10 13 17 22 63 78 54 46 33 38 16 14 14 18 27 22
100 100 100 100 100 100 100 100 100 100 100 94 83 87 95 97 95 62 54 53 43 39 22 19 10 8 9 10 13 17 19 22 62 46 58 83 29 25 18 16 16 24 36
100 100 100 100 100 100 100 100 100 100 98 91 95 96 94 93 86 53 71 74 54 32 20 10 9 9 10 10 12 15 15 14 19 54 33 31 51 17 26 39 52 28 63
98 100 100 100 100 100 100 100 100 100 99 100 100 100 97 92 98 86 69 27 42 17 11 9 9 9 10 10 12 12 13 13 15 31 38 34 17 19 32 20 54 63 51
100 100 100 100 100 100 100 100 100 100 100 100 100 99 100 100 92 62 31 45 22 13 13 10 9 10 10 10 11 12 12 13 18 51 39 34 16 18 19 20 45 90 85
100 100 100 100 100 100 100 100 100 100 100 100 99 100 99 91 51 36 39 40 23 13 10 10 10 10 10 10 11 12 12 12 14 23 21 17 18 19 20 22 26 68 73
100 99 100 100 100 100 100 100 100 100 100 100 99 98 95 88 45 43 40 26 17 12 11 10 10 10 9 10 10 11 12 12 13 14 16 18 20 21 21 32 44 57 42
100 100 100 100 100 100 100 100 100 100 100 99 98 96 96 69 43 36 32 23 18 14 13 12 11 9 9 10 10 11 11 12 13 14 15 18 20 22 23 23 27 76 90
100 100 99 99 100 100 100 100 100 100 99 99 70 79 78 56 36 32 28 21 19 16 15 14 13 10 10 11 11 11 12 12 13 14 15 16 18 21 24 25 24 70 36
100 100 100 100 100 100 100 100 100 100 100 70 61 63 49 44 49 36 28 24 20 18 16 17 16 14 13 12 13 14 14 14 14 15 16 17 19 21 24 26 27 26 27
100 100 100 99 100 100 100 100 100 100 99 71 64 54 56 72 80 41 33 31 22 20 18 19 18 14 13 11 11 12 12 14 14 15 16 18 19 20 23 26 27 27 27
100 100 100 100 100 100 100 100 100 100 99 65 60 59 78 98 93 98 93 32 34 30 26 23 20 16 11 8 9 11 13 14 16 16 19 26 23 21 22 26 28 29 29
100 100 100 100 99 100 100 100 100 99 99 87 63 69 91 98 97 97 96 53 51 46 40 40 34 23 12 9 9 11 15 15 18 24 52 68 25 21 25 38 46 40 81
99 100 99 100 100 100 100 99 100 100 100 98 86 80 72 98 95 96 94 52 48 43 42 39 27 29 48 36 16 16 21 31 32 84 95 69 45 70 79 64 88 83 84
100 100 99 100 96 96 98 99 100 99 99 100 100 99 97 98 98 97 96 75 39 39 27 31 46 59 76 88 96 92 95 78 93 99 85 79 93 88 86 76 83 87 88
99 99 100 99 99 98 99 99 98 99 100 100 99 100 100 98 98 97 97 97 86 28 30 29 56 66 90 100 100 98 98 100 100 97 78 92 96 95 88 88 86 85 82
99 100 99 100 98 98 99 100 98 97 98 96 99 99 99 100 99 97 96 76 43 54 62 57 66 78 96 100 99 97 95 96 62 54 81 98 99 99 97 92 89 94 84
98 99 99 99 99 98 98 98 97 97 97 96 97 98 97 98 96 95 95 79 87 71 89 90 87 84 91 95 88 81 78 84 52 71 99 100 99 98 99 96 90 89 87
97 99 98 98 98 98 98 99 98 97 96 96 96 96 96 96 96 97 98 96 91 91 94 88 87 95 97 100 96 75 72 94 98 100 100 100 100 97 100 100 100 100 75
97 98 98 100 100 99 100 100 100 97 96 97 97 96 95 95 96 95 95 97 96 95 93 91 96 91 96 98 99 100 100 100 100 100 100 100 100 100 98 100 100 100 93
100 97 94 96 96 97 100 99 98 97 97 96 96 96 96 96 96 95 95 95 95 96 94 88 99 94 69 58 56 96 100 100 100 100 100 100 100 80 100 100 100 100 100
99 99 96 95 95 95 96 96 96 96 96 96 96 96 96 96 96 95 95 95 96 99 94 95 90 89 90 90 94 99 99 100 100 100 100 100 100 100 100 100 100 100 100
97 96 96 97 96 94 95 96 96 97 96 95 93 92 96 99 100 99 98 98 97 97 94 94 96 96 96 96 96 92 100 100 93 89 94 100 100 100 100 100 100 100 100
97 94 89 86 86 83 79 80 76 75 79 84 90 97 100 100 99 98 96 96 97 97 96 96 95 93 73 57 63 75 84 90 86 77 76 86 100 100 100 100 100 100 100
97 96 96 96 94 94 94 93 93 93 93 94 94 94 95 96 96 96 95 95 94 93 92 93 88 70 68 80 88 87 84 84 85 85 82 89 99 100 100 99 100 100 100
Wind_Speed
32 38 44 46 50 53 53 53 54 55 56 54 50 46 40 35 30 29 29 27 28 28 25 19 19 18 17 17 17 16 14 13 15 14 12 10 7 6 4 3 6 6 11
32 40 42 45 50 51 51 50 50 51 51 46 51 47 43 40 34 29 28 29 28 26 24 21 17 17 18 18 17 16 15 14 13 15 12 10 7 5 3 3 4 5 8
32 32 38 43 47 48 48 46 45 46 41 45 46 44 49 43 37 30 31 28 27 25 23 19 22 20 20 18 17 17 17 16 15 13 14 11 8 5 3 3 4 5 6
30 31 36 39 42 42 41 40 38 36 41 45 45 47 47 43 39 36 30 31 32 29 27 23 23 23 21 20 19 18 17 16 16 14 12 12 9 7 5 2 2 1 1
21 29 30 32 35 34 32 33 34 39 46 49 49 46 40 39 38 39 38 36 30 26 23 25 24 23 22 21 20 19 18 17 16 15 14 13 11 8 6 3 2 2 3
20 27 25 26 29 30 33 39 45 50 47 45 46 46 45 43 42 36 35 32 26 26 25 27 25 23 23 21 19 20 19 17 16 13 14 13 11 9 6 4 3 2 4
21 16 20 23 26 32 38 41 46 46 44 44 42 44 42 36 37 36 32 26 27 28 27 25 25 25 24 22 21 19 18 17 17 15 15 15 12 9 7 5 4 3 3
20 17 17 16 22 25 29 36 41 40 42 43 42 36 36 35 34 32 30 26 26 26 26 25 24 24 23 22 22 22 20 19 18 17 16 14 11 10 8 7 6 5 3
22 18 15 18 19 19 31 36 37 37 40 38 36 34 32 32 31 31 30 28 28 27 25 24 22 22 22 22 20 19 19 19 18 16 14 13 11 10 9 8 6 5 5
22 18 15 18 21 28 33 34 36 36 38 37 35 36 34 33 33 30 29 29 30 29 27 25 24 22 21 20 20 19 18 19 18 17 15 13 12 12 10 8 7 6 8
20 20 16 19 22 29 34 36 37 36 35 34 34 33 32 32 33 29 28 27 28 29 28 28 26 25 24 22 20 19 18 16 17 16 14 13 13 11 9 9 8 7 5
18 18 16 19 25 27 33 36 35 36 37 36 36 35 34 33 32 31 26 26 27 26 27 27 26 25 24 23 22 21 18 17 17 16 14 14 13 12 11 10 8 6 5
16 17 16 19 20 25 30 34 35 34 35 35 35 36 35 33 32 28 30 26 24 25 25 24 23 22 23 23 23 21 20 19 18 16 16 16 15 14 11 10 8 6 5
15 17 18 19 20 22 25 30 34 34 34 35 37 36 34 32 31 32 32 28 27 26 23 21 21 22 22 23 24 23 22 21 19 17 15 15 15 13 12 10 7 6 3
15 15 17 17 17 19 21 26 30 32 31 32 35 35 34 34 33 35 35 31 28 27 24 22 23 22 21 21 22 21 21 20 19 15 15 15 13 12 11 11 9 8 6
9 10 11 14 14 16 20 24 25 26 25 25 27 29 29 28 30 31 29 25 23 22 24 24 23 22 20 18 17 17 17 17 16 15 15 14 13 13 11 10 9 8 7
6 3 4 8 12 17 20 21 22 24 22 21 21 23 25 24 23 26 25 23 22 24 23 24 21 20 19 18 18 17 16 16 17 16 15 14 14 12 15 10 10 9 9
5 3 3 7 12 15 16 18 19 21 22 21 17 16 16 17 20 24 22 22 24 22 22 23 22 21 18 18 18 17 16 17 18 17 15 15 15 13 12 11 10 10 9
3 5 6 8 10 12 13 15 15 15 17 19 20 16 16 19 20 22 22 23 23 24 23 23 21 20 19 18 18 18 18 17 17 16 14 14 14 13 12 12 11 13 12
6 7 8 9 11 11 12 13 15 16 17 20 22 23 23 24 26 25 23 20 20 21 22 21 19 18 18 17 18 18 17 16 15 15 13 13 12 12 12 12 11 11 11
7 9 9 9 10 10 11 13 14 17 19 21 21 21 23 25 27 26 24 22 20 18 18 18 18 18 18 18 16 15 15 15 15 15 14 13 12 12 11 11 12 12 11
7 8 10 10 10 11 11 12 15 16 18 19 19 18 18 19 20 21 21 21 19 17 14 14 14 14 16 17 16 15 15 16 16 15 14 13 12 12 11 12 12 12 11
7 9 11 11 11 11 12 13 15 16 17 17 19 20 19 17 16 16 15 15 16 16 14 14 13 13 14 14 15 15 15 16 16 14 14 13 13 12 12 12 12 12 11
8 9 10 12 13 13 13 14 15 15 16 16 16 16 17 15 15 14 13 14 14 14 14 14 13 13 14 15 16 16 15 16 15 15 16 14 12 14 12 12 12 11 11
10 11 12 12 13 13 13 12 13 14 14 14 14 14 14 14 14 13 13 13 13 14 14 15 15 13 12 12 13 14 14 13 13 13 14 14 12 13 12 11 11 10 11
11 11 12 12 12 12 12 12 12 12 12 12 12 12 11 12 12 13 12 12 12 13 14 14 13 12 13 13 12 12 11 11 11 11 11 12 12 13 13 13 13 10 11
Wind_Direction
281 244 236 233 232 229 229 225 220 216 214 209 196 189 190 192 191 193 192 190 199 192 188 182 193 194 183 193 186 182 175 166 160 170 176 161 154 154 127 86 48 35 6
278 251 239 233 225 224 223 222 219 215 212 201 187 184 182 185 193 194 202 191 192 190 189 192 191 185 192 188 182 175 171 155 166 159 163 159 164 163 139 93 63 25 8
276 232 223 221 222 219 218 215 213 211 201 185 184 189 193 186 180 194 196 193 194 197 194 199 191 199 193 188 184 178 170 164 162 163 158 164 171 160 131 84 36 17 358
277 245 228 219 216 215 213 210 206 200 191 190 193 191 185 183 186 185 189 198 201 202 196 189 193 193 188 185 186 183 175 171 165 165 161 173 168 172 157 128 51 31 347
295 248 230 222 217 214 210 204 198 191 189 188 185 180 174 176 184 189 195 200 203 200 195 192 192 190 187 185 184 184 182 178 173 170 174 176 174 170 169 168 153 252 305
253 241 230 225 213 207 200 194 188 186 185 182 177 176 181 184 189 198 198 199 194 199 199 196 190 188 187 186 188 188 186 183 178 176 184 185 178 177 175 176 173 199 238
262 254 231 218 211 202 194 190 185 183 181 176 178 180 179 188 193 195 194 199 204 200 198 192 189 189 187 186 185 185 187 192 187 186 191 189 183 185 182 188 192 185 207
251 248 237 233 212 200 193 188 183 185 184 180 180 185 181 193 198 193 196 199 204 198 195 194 194 189 187 187 187 188 186 187 191 198 194 196 190 189 189 190 199 205 221
245 235 236 224 209 205 193 185 188 187 182 183 183 187 191 197 194 192 192 195 198 195 191 190 190 193 191 194 194 192 191 194 195 196 196 198 197 204 204 202 205 184 227
247 239 225 218 209 196 193 191 189 188 184 182 184 193 197 194 193 195 193 195 196 193 191 191 192 190 190 192 190 191 193 195 196 196 200 205 210 211 214 215 207 198 223
255 239 221 211 206 203 195 191 191 190 187 191 192 194 195 196 195 192 197 202 201 197 195 194 195 193 192 192 192 192 200 206 204 203 204 206 205 207 212 218 217 213 217
252 236 218 209 203 200 198 192 195 193 189 192 191 189 192 197 201 192 194 203 208 206 200 200 200 200 197 195 197 200 199 209 210 208 212 214 212 212 215 221 221 223 231
227 219 211 201 197 197 195 193 191 193 188 190 190 192 194 200 202 205 197 206 202 204 204 203 203 203 203 198 200 198 198 204 213 209 211 219 218 221 221 223 226 230 242
216 198 194 190 186 191 194 197 196 194 195 194 196 197 198 199 202 201 198 201 200 200 202 201 201 203 204 202 202 203 202 205 207 208 210 218 219 219 218 221 224 219 213
204 177 182 186 181 185 193 199 204 206 207 207 210 210 207 205 208 207 200 200 200 202 199 198 196 194 196 199 199 206 205 205 205 204 203 212 212 211 207 214 207 209 212
170 158 179 185 183 193 197 200 210 214 216 224 230 226 216 223 220 211 200 199 201 208 207 204 196 197 198 199 197 198 200 206 202 206 206 209 211 212 209 212 212 211 220
104 139 189 197 199 201 201 202 202 205 218 237 238 233 229 231 224 207 196 196 204 206 200 202 201 202 199 199 202 203 201 204 204 208 209 210 210 210 211 212 217 216 220
75 82 209 212 211 212 207 201 202 206 204 206 216 220 217 215 203 197 194 188 190 192 201 205 205 206 203 205 203 202 201 205 210 210 211 213 215 212 214 213 216 218 222
144 181 196 206 211 208 200 195 195 193 192 187 180 178 182 182 183 189 192 197 198 198 203 208 211 213 209 211 211 208 207 210 211 212 212 215 217 211 214 216 213 217 217
135 156 170 180 180 184 185 182 182 181 182 177 174 177 176 181 180 183 189 195 205 206 215 216 214 212 212 213 216 215 212 208 208 210 211 215 217 216 216 217 216 226 222
129 140 147 152 160 166 168 170 173 178 176 176 180 188 190 189 190 189 190 198 208 211 213 213 214 216 216 216 211 210 207 209 210 211 213 213 214 214 215 224 223 223 223
123 133 140 148 150 149 154 162 167 172 176 178 183 182 183 187 187 189 195 203 206 207 210 211 209 210 215 219 219 210 209 212 213 210 211 213 222 226 223 218 220 225 223
133 137 140 143 150 152 157 160 166 168 172 178 175 167 169 175 179 184 192 197 202 206 209 206 207 208 215 221 220 212 213 211 216 214 214 215 228 224 220 219 222 221 225
149 144 143 142 146 147 151 155 161 165 167 170 172 174 175 180 185 191 195 204 208 213 218 216 218 227 237 233 228 223 211 216 223 230 228 227 221 218 217 218 223 224 224
150 146 145 145 145 147 149 151 149 148 152 160 167 174 184 193 197 203 209 212 216 221 228 230 237 247 230 218 215 218 229 236 236 237 234 229 213 219 218 224 221 224 224
138 137 136 137 139 143 149 152 155 159 165 169 177 185 191 196 202 207 213 217 222 225 228 232 232 217 209 212 217 221 224 230 236 237 236 230 225 229 234 234 239 224 229